[[{"header":{"parameterUnit":"m.s-1","parameterCategory":1,"la1":30.2991,"la2":30.254,"lo1":-89.0895,"lo2":-89.0444,"dy":0.0017,"dx":0.0017,"nx":28,"ny":28,"refTime":"2024-06-13T21:00:00:Z","depth":0,"parameterNumber":2,"parameterNumberName":"U-component_of_WINDS"},"data":[0,0,0,0,0,0,0,0,0,0,0,0,0,0,0,0,0,0,0,0,0,0,0,0,0,0,0,0,0,0,0,0,0,0,0,0,0,0,0,0,0,0,0,0,0,0,0,0,0,0,0,0,0,0,0,0,0,0,-1.3167,-1.3167,0,-1.3121,-1.312,-1.3119,-1.3037,-1.3036,-1.3034,-1.3033,-1.2986,-1.2987,-1.2987,0,0,0,0,0,0,0,0,0,0,0,0,0,-1.3187,-1.3187,-1.3167,-1.3167,-1.3166,-1.3121,-1.312,-1.3119,-1.3038,-1.3036,-1.3034,-1.3032,-1.2986,-1.2987,-1.2987,0,0,0,0,0,0,0,0,0,0,0,0,0,-1.3164,-1.3187,-1.3167,-1.312,-1.3115,-1.3121,-1.312,-1.3119,-1.3038,-1.3036,-1.3033,-1.3031,-1.2986,-1.2986,-1.2987,-1.3036,0,0,-1.2988,-1.2988,0,0,0,0,0,0,0,0,-1.3165,-1.3163,-1.3127,-1.3123,-1.3118,-1.3082,-1.311,-1.3091,-1.3039,-1.3067,-1.3033,-1.303,-1.302,-1.3018,-1.3014,-1.3033,-1.3031,-1.2988,-1.2988,-1.2988,-1.2988,0,0,0,0,0,0,0,-1.3167,-1.3164,-1.3149,-1.3127,-1.3121,-1.3101,-1.3095,-1.3106,-1.3058,-1.3065,-1.3059,-1.3054,-1.3017,-1.3014,-1.3012,-1.3031,-1.2988,-1.2988,-1.2988,-1.2988,-1.3088,-1.3091,0,0,0,0,0,0,-1.3175,-1.3166,-1.315,-1.3147,-1.3136,-1.3103,-1.3096,-1.3096,-1.3057,-1.3049,-1.3056,-1.305,-1.3015,-1.3012,-1.301,-1.3065,-1.2988,-1.2988,-1.2989,-1.3086,-1.3089,-1.3092,0,0,0,0,0,0,-1.3176,-1.3174,-1.3152,-1.3155,-1.3151,-1.3105,-1.3106,-1.3096,-1.3093,-1.3051,-1.3042,-1.3062,-1.3013,-1.301,-1.303,-1.3063,-1.2989,-1.2989,-1.3083,-1.3087,-1.309,-1.3176,0,0,0,0,0,0,-1.3177,-1.3175,-1.3193,-1.3156,-1.3151,-1.3172,-1.3108,-1.3097,-1.3094,-1.3086,-1.3053,-1.3046,-1.3011,-1.303,-1.303,-1.3062,-1.2989,-1.308,-1.3085,-1.3089,-1.317,-1.3182,-1.3192,0,0,0,0,0,-1.3178,-1.3219,-1.3194,-1.3193,-1.3172,-1.3174,-1.3171,-1.3129,-1.3097,-1.3114,-1.3087,-1.3047,-1.3059,-1.3033,-1.3032,-1.3064,-1.3078,-1.3083,-1.3089,-1.3165,-1.3179,-1.3192,0,0,0,0,0,0,-1.3261,-1.3213,-1.3185,-1.3216,-1.32,-1.316,-1.3181,-1.3146,-1.314,-1.3133,-1.3081,-1.3075,-1.3102,-1.3085,-1.3056,-1.311,-1.3062,-1.3068,-1.312,-1.3134,-1.3145,-1.3148,-1.2989,0,0,0,0,0,-1.3283,-1.3288,-1.3246,-1.3277,-1.3271,-1.3228,-1.3227,-1.3196,-1.3178,-1.3171,-1.3145,-1.3129,-1.3129,-1.313,-1.3128,-1.3167,-1.3159,-1.3189,-1.32,-1.3209,-1.3215,-1.3235,-1.3248,-1.311,-1.311,-1.311,0,0,-1.3328,-1.3303,-1.3309,-1.3293,-1.3277,-1.3285,-1.3222,-1.3233,-1.3238,-1.3172,-1.319,-1.317,-1.3149,-1.3179,-1.3191,-1.3166,-1.3252,-1.3216,-1.3224,-1.3225,-1.3242,-1.3255,-1.3267,-1.3113,-1.3113,-1.3112,0,0,-1.3414,-1.3395,-1.3419,-1.3405,-1.3381,-1.3352,-1.3358,-1.3324,-1.3309,-1.3325,-1.3277,-1.3282,-1.3283,-1.327,-1.3264,-1.3346,-1.3309,-1.3347,-1.3406,-1.3426,-1.3437,-1.3446,-1.3476,-1.3488,-1.3353,-1.3353,-1.3353,0,-1.3474,-1.3482,-1.3436,-1.345,-1.3444,-1.3385,-1.3409,-1.3397,-1.3375,-1.3373,-1.3345,-1.3346,-1.3327,-1.3353,-1.3374,-1.337,-1.3376,-1.3351,-1.3439,-1.3448,-1.3456,-1.3484,-1.3496,-1.3358,-1.3357,-1.3357,-1.3356,0,-1.3557,-1.3564,-1.3586,-1.3565,-1.3562,-1.3581,-1.3539,-1.3542,-1.3511,-1.3486,-1.3504,-1.348,-1.3472,-1.3476,-1.3446,-1.3498,-1.3483,-1.3448,-1.3399,-1.3475,-1.3501,-1.3511,-1.3365,-1.3363,-1.3362,-1.336,0,0,-1.3694,-1.3648,-1.3657,-1.3647,-1.3617,-1.3622,-1.3638,-1.363,-1.3634,-1.362,-1.3634,-1.3636,-1.3603,-1.3596,-1.3565,-1.3583,-1.365,-1.3545,-1.3544,-1.3566,-1.3707,-1.3735,-1.3748,-1.3625,-1.3627,-1.3629,-1.3709,0,-1.3774,-1.3799,-1.3759,-1.3794,-1.38,-1.3744,-1.3758,-1.3742,-1.3719,-1.3721,-1.3695,-1.3699,-1.3655,-1.365,-1.3665,-1.3639,-1.3678,-1.3632,-1.3638,-1.3639,-1.3646,-1.3761,-1.3789,-1.3867,-1.3719,-1.3721,-1.3722,0,-1.3871,-1.3862,-1.3898,-1.3866,-1.3867,-1.3881,-1.3871,-1.3874,-1.3854,-1.3836,-1.3829,-1.3791,-1.3806,-1.3759,-1.3779,-1.3749,-1.3748,-1.3736,-1.3738,-1.3737,-1.3685,-1.3764,-1.389,-1.3902,-1.3737,-1.3736,-1.3735,0,-1.3969,-1.3966,-1.3987,-1.398,-1.3943,-1.3954,-1.394,-1.3918,-1.3916,-1.3907,-1.3906,-1.3899,-1.3896,-1.3892,-1.3854,-1.3823,-1.3879,-1.3828,-1.3865,-1.3866,-1.388,-1.388,-1.4008,-1.3879,-1.3879,-1.3879,-1.3878,0,-1.4063,-1.4087,-1.403,-1.4043,-1.4069,-1.4022,-1.4049,-1.4029,-1.401,-1.4019,-1.397,-1.3979,-1.3928,-1.3932,-1.3903,-1.3925,-1.3923,-1.391,-1.3902,-1.3914,-1.3916,-1.3914,-1.3908,-1.3882,-1.3881,-1.388,-1.388,0,-1.4176,-1.4139,-1.4158,-1.4122,-1.4113,-1.4134,-1.4103,-1.4114,-1.4088,-1.41,-1.41,-1.4059,-1.4061,-1.4023,-1.4018,-1.3998,-1.4033,-1.4015,-1.404,-1.4035,-1.4074,-1.4071,-1.4206,-1.4222,-1.4082,-1.4084,-1.4085,0,-1.4239,-1.4256,-1.4222,-1.4224,-1.4212,-1.4216,-1.4213,-1.4168,-1.4168,-1.4148,-1.4162,-1.416,-1.4156,-1.4163,-1.4133,-1.4129,-1.4111,-1.4159,-1.411,-1.4123,-1.4113,-1.4112,-1.4114,-1.4169,-1.4171,-1.4172,-1.4173,0,-1.4354,-1.4335,-1.4333,-1.4326,-1.4325,-1.4317,-1.4305,-1.431,-1.4261,-1.4264,-1.4265,-1.4262,-1.4257,-1.4256,-1.4247,-1.4232,-1.4196,-1.4189,-1.4197,-1.4211,-1.4225,-1.4219,-1.4068,-1.4186,-1.4185,-1.4184,-1.4183,-1.4183,-1.4444,-1.4457,-1.4436,-1.4436,-1.4422,-1.4413,-1.4422,-1.4397,-1.4398,-1.439,-1.4363,-1.437,-1.4351,-1.4334,-1.4323,-1.4328,-1.4304,-1.4317,-1.432,-1.4324,-1.4331,-1.4224,-1.4326,-1.4325,-1.4325,-1.4325,-1.4324,0,-1.4558,-1.4541,-1.4542,-1.4528,-1.4528,-1.4493,-1.4479,-1.4482,-1.4488,-1.4473,-1.447,-1.4473,-1.4472,-1.4443,-1.4438,-1.4448,-1.4431,-1.4449,-1.4448,-1.4445,-1.4352,-1.4345,-1.4462,-1.4462,-1.4462,-1.4462,-1.4462,-1.4462,-1.4617,-1.4637,-1.4616,-1.463,-1.4613,-1.4618,-1.4614,-1.4605,-1.4593,-1.4598,-1.4597,-1.4578,-1.4557,-1.4551,-1.4549,-1.4541,-1.4542,-1.4565,-1.4551,-1.4465,-1.4452,-1.4439,-1.4432,-1.4566,-1.4566,-1.4644,-1.4645,-1.4645]},{"header":{"parameterUnit":"m.s-1","parameterCategory":1,"la1":30.2991,"la2":30.254,"lo1":-89.0895,"lo2":-89.0444,"dy":0.0017,"dx":0.0017,"nx":28,"ny":28,"refTime":"2024-06-13T21:00:00:Z","depth":0,"parameterNumber":3,"parameterNumberName":"V-component_of_WINDS"},"data":[0,0,0,0,0,0,0,0,0,0,0,0,0,0,0,0,0,0,0,0,0,0,0,0,0,0,0,0,0,0,0,0,0,0,0,0,0,0,0,0,0,0,0,0,0,0,0,0,0,0,0,0,0,0,0,0,0,0,1.892,1.8919,0,1.8861,1.8861,1.886,1.8832,1.8832,1.8832,1.8832,1.8768,1.8766,1.8765,0,0,0,0,0,0,0,0,0,0,0,0,0,1.9004,1.9003,1.892,1.8919,1.8919,1.8861,1.8861,1.886,1.8832,1.8832,1.8832,1.8832,1.8769,1.8767,1.8765,0,0,0,0,0,0,0,0,0,0,0,0,0,1.8959,1.9002,1.892,1.8898,1.8895,1.8862,1.8861,1.886,1.8832,1.8832,1.8832,1.8832,1.8769,1.8767,1.8764,1.8748,0,0,1.8756,1.8755,0,0,0,0,0,0,0,0,1.8961,1.8956,1.8902,1.8899,1.8896,1.8854,1.8867,1.8822,1.8832,1.8856,1.8832,1.8832,1.8796,1.8792,1.878,1.8745,1.8742,1.8756,1.8755,1.8754,1.8753,0,0,0,0,0,0,0,1.8964,1.8958,1.8897,1.8901,1.8898,1.8889,1.8883,1.8858,1.8826,1.8854,1.8851,1.8845,1.8795,1.8783,1.8779,1.8741,1.8756,1.8754,1.8752,1.8751,1.8687,1.8686,0,0,0,0,0,0,1.8972,1.8961,1.8899,1.8895,1.893,1.8888,1.8881,1.8867,1.8827,1.8821,1.8845,1.8844,1.8787,1.8782,1.8776,1.8753,1.8754,1.8751,1.875,1.8687,1.8686,1.8686,0,0,0,0,0,0,1.8974,1.8967,1.8901,1.8927,1.8918,1.8886,1.8872,1.8866,1.8854,1.882,1.8814,1.8839,1.8787,1.878,1.8755,1.875,1.875,1.8748,1.8687,1.8687,1.8686,1.8707,0,0,0,0,0,0,1.8976,1.8967,1.8962,1.8927,1.8917,1.8882,1.8871,1.8865,1.885,1.8848,1.8813,1.8807,1.8787,1.8759,1.8752,1.8747,1.8746,1.8687,1.8687,1.8686,1.8706,1.8707,1.8708,0,0,0,0,0,1.8979,1.8969,1.8962,1.8954,1.891,1.8882,1.8876,1.8853,1.885,1.8843,1.8821,1.8808,1.8752,1.8756,1.8749,1.8743,1.8687,1.8687,1.8687,1.8706,1.8707,1.8708,0,0,0,0,0,0,1.9003,1.8965,1.8955,1.8935,1.8912,1.8877,1.8868,1.8855,1.8832,1.8831,1.8803,1.8796,1.8773,1.8755,1.8761,1.8723,1.8718,1.8716,1.8736,1.8737,1.8737,1.8742,1.8743,0,0,0,0,0,1.9007,1.8988,1.8955,1.8939,1.8929,1.89,1.8887,1.8872,1.8847,1.8837,1.8813,1.8788,1.8764,1.875,1.8726,1.8704,1.8695,1.8696,1.8696,1.8697,1.8696,1.8681,1.8681,1.8685,1.8685,1.8685,0,0,1.9012,1.8989,1.8979,1.8944,1.8924,1.8904,1.8892,1.8872,1.8857,1.8833,1.8808,1.879,1.876,1.8736,1.8724,1.872,1.8693,1.8697,1.8698,1.8696,1.8681,1.868,1.868,1.8685,1.8685,1.8685,0,0,1.9013,1.8994,1.8978,1.8959,1.893,1.8911,1.8907,1.8874,1.8861,1.8836,1.8817,1.8798,1.8758,1.8737,1.8722,1.8713,1.8699,1.8706,1.871,1.8696,1.8696,1.8695,1.8691,1.869,1.8705,1.8705,1.8705,0,1.9023,1.8994,1.8972,1.8952,1.8937,1.8915,1.8898,1.888,1.8845,1.8834,1.8831,1.878,1.8758,1.8728,1.8726,1.8715,1.8708,1.871,1.8698,1.8697,1.8696,1.8692,1.8691,1.8706,1.8705,1.8705,1.8705,0,1.9008,1.8988,1.8978,1.8945,1.8929,1.8911,1.8884,1.887,1.8856,1.8837,1.881,1.8783,1.8754,1.8745,1.8731,1.8713,1.8711,1.8704,1.8698,1.8697,1.8693,1.8691,1.8707,1.8707,1.8706,1.8706,0,0,1.9022,1.8976,1.8973,1.8957,1.8923,1.8906,1.8887,1.8858,1.8846,1.8822,1.8804,1.877,1.8763,1.8745,1.8728,1.8716,1.8709,1.8709,1.8708,1.8709,1.8685,1.8691,1.869,1.87,1.8699,1.8699,1.8687,0,1.9017,1.8982,1.8961,1.8934,1.8914,1.8892,1.8875,1.8851,1.8833,1.8812,1.8791,1.8768,1.876,1.8749,1.8736,1.8713,1.8704,1.8713,1.8681,1.868,1.8689,1.8687,1.8693,1.8684,1.8686,1.8685,1.8685,0,1.9007,1.8983,1.8955,1.8921,1.8912,1.8897,1.8869,1.885,1.8822,1.8809,1.8789,1.8772,1.8749,1.8745,1.8712,1.8719,1.8704,1.8691,1.869,1.8686,1.8682,1.8682,1.868,1.8679,1.8682,1.8682,1.8683,0,1.9019,1.898,1.8958,1.8945,1.8906,1.8895,1.8878,1.8851,1.8835,1.8809,1.8798,1.8771,1.8755,1.8733,1.8709,1.8709,1.8677,1.8672,1.8665,1.8665,1.8659,1.8659,1.8654,1.8651,1.8651,1.8651,1.8651,0,1.9015,1.8998,1.8962,1.8949,1.8928,1.8903,1.8883,1.8864,1.884,1.882,1.88,1.8782,1.8751,1.8729,1.871,1.8684,1.8678,1.8666,1.866,1.8667,1.8668,1.8657,1.8656,1.8651,1.8651,1.8651,1.8651,0,1.9025,1.9001,1.8974,1.8939,1.893,1.8917,1.8886,1.8871,1.8851,1.8827,1.882,1.8788,1.8761,1.8735,1.8698,1.8685,1.866,1.8653,1.8669,1.8666,1.866,1.8661,1.8646,1.8643,1.8643,1.8643,1.8643,0,1.9024,1.901,1.8973,1.896,1.8943,1.8921,1.8905,1.8879,1.8862,1.8829,1.8817,1.8789,1.8765,1.8723,1.8696,1.8667,1.8659,1.8656,1.8655,1.8661,1.8658,1.8659,1.8657,1.8657,1.8657,1.8657,1.8657,0,1.9024,1.9012,1.899,1.8963,1.8944,1.8921,1.8898,1.8887,1.8856,1.8839,1.8811,1.8793,1.8755,1.8727,1.8695,1.8676,1.8661,1.8658,1.8654,1.8661,1.867,1.8664,1.8671,1.8658,1.8658,1.8658,1.8658,1.8658,1.9027,1.9014,1.8986,1.8961,1.894,1.8919,1.8903,1.8881,1.8858,1.8826,1.8812,1.8784,1.8754,1.871,1.8692,1.8668,1.8664,1.866,1.8659,1.8658,1.8659,1.8675,1.8663,1.8662,1.8662,1.8662,1.8662,0,1.9025,1.9006,1.8984,1.8951,1.8931,1.892,1.8893,1.8877,1.8853,1.8827,1.8804,1.8772,1.8744,1.8715,1.8685,1.8671,1.8664,1.8664,1.8665,1.866,1.8664,1.867,1.8671,1.8671,1.8671,1.8671,1.8671,1.8671,1.9022,1.8998,1.8983,1.8948,1.8928,1.8902,1.8887,1.8866,1.8846,1.8811,1.8788,1.8769,1.8742,1.8709,1.8683,1.8675,1.8664,1.8667,1.8656,1.8661,1.866,1.8659,1.8664,1.8665,1.8665,1.8654,1.8654,1.8654]}]]